TimeEST,TemperatureF,Dew PointF,Humidity,Sea Level PressureIn,VisibilityMPH,Wind Direction,Wind SpeedMPH,Gust SpeedMPH,PrecipitationIn,Events,Conditions,WindDirDegrees,DateUTC
12:15 AM,53.6,51.8,94,30.28,5.0,North,10.4,-,0.00,,Overcast,10,2012-11-14 05:15:00
12:35 AM,53.6,50.0,88,30.28,5.0,NNE,12.7,17.3,0.00,,Overcast,20,2012-11-14 05:35:00
12:55 AM,53.6,50.0,88,30.27,10.0,North,13.8,-,0.00,,Overcast,10,2012-11-14 05:55:00
1:15 AM,53.6,48.2,82,30.28,10.0,North,13.8,20.7,0.00,,Overcast,360,2012-11-14 06:15:00
1:35 AM,51.8,48.2,88,30.28,8.0,North,11.5,18.4,0.00,,Overcast,10,2012-11-14 06:35:00
1:55 AM,51.8,48.2,88,30.27,8.0,North,11.5,-,0.00,,Overcast,10,2012-11-14 06:55:00
2:15 AM,51.8,46.4,82,30.28,10.0,North,10.4,17.3,0.00,,Overcast,10,2012-11-14 07:15:00
2:55 AM,50.0,46.4,87,30.28,10.0,NNE,13.8,18.4,0.00,,Overcast,20,2012-11-14 07:55:00
3:15 AM,50.0,46.4,87,30.28,10.0,North,12.7,-,0.00,,Overcast,10,2012-11-14 08:15:00
3:35 AM,50.0,46.4,87,30.28,10.0,NNE,12.7,19.6,0.00,,Overcast,20,2012-11-14 08:35:00
3:55 AM,50.0,44.6,82,30.29,10.0,NNE,13.8,18.4,0.00,,Overcast,20,2012-11-14 08:55:00
4:15 AM,50.0,44.6,82,30.29,10.0,North,12.7,-,0.00,,Overcast,10,2012-11-14 09:15:00
4:55 AM,48.2,44.6,87,30.30,10.0,North,12.7,18.4,0.00,,Overcast,10,2012-11-14 09:55:00
5:15 AM,48.2,44.6,87,30.30,10.0,North,12.7,-,0.00,,Overcast,10,2012-11-14 10:15:00
5:55 AM,48.2,44.6,87,30.31,10.0,NNE,9.2,-,0.00,,Overcast,20,2012-11-14 10:55:00
6:15 AM,48.2,44.6,87,30.32,10.0,North,10.4,16.1,0.00,,Overcast,10,2012-11-14 11:15:00
6:35 AM,48.2,44.6,87,30.32,10.0,NNE,12.7,-,0.00,,Overcast,20,2012-11-14 11:35:00
6:55 AM,48.2,44.6,87,30.33,10.0,North,11.5,-,0.00,,Overcast,10,2012-11-14 11:55:00
7:15 AM,48.2,42.8,82,30.34,9.0,NNE,11.5,-,0.00,,Overcast,20,2012-11-14 12:15:00
7:35 AM,48.2,42.8,82,30.34,9.0,NNE,12.7,-,0.00,,Overcast,20,2012-11-14 12:35:00
7:55 AM,48.2,42.8,82,30.34,8.0,NNE,11.5,16.1,0.00,,Overcast,20,2012-11-14 12:55:00
8:15 AM,48.2,42.8,82,30.34,7.0,NNE,13.8,-,0.00,,Overcast,20,2012-11-14 13:15:00
8:35 AM,48.2,42.8,82,30.36,7.0,North,10.4,-,0.00,,Overcast,10,2012-11-14 13:35:00
8:55 AM,48.2,42.8,82,30.36,7.0,North,10.4,-,0.00,,Overcast,10,2012-11-14 13:55:00
9:15 AM,50.0,42.8,76,30.37,8.0,North,11.5,16.1,0.00,,Overcast,10,2012-11-14 14:15:00
9:35 AM,50.0,42.8,76,30.37,8.0,North,12.7,-,0.00,,Overcast,10,2012-11-14 14:35:00
9:55 AM,51.8,44.6,76,30.38,8.0,NNE,10.4,-,0.00,,Overcast,20,2012-11-14 14:55:00
10:15 AM,51.8,44.6,76,30.37,7.0,North,12.7,-,0.00,,Overcast,10,2012-11-14 15:15:00
10:35 AM,51.8,44.6,76,30.37,8.0,NNE,12.7,17.3,0.00,,Overcast,20,2012-11-14 15:35:00
10:55 AM,51.8,44.6,76,30.36,8.0,NNE,12.7,-,0.00,,Overcast,20,2012-11-14 15:55:00
11:15 AM,51.8,44.6,76,30.35,8.0,North,11.5,-,0.00,,Overcast,10,2012-11-14 16:15:00
11:35 AM,51.8,44.6,76,30.35,8.0,North,11.5,17.3,0.00,,Overcast,10,2012-11-14 16:35:00
11:55 AM,51.8,44.6,76,30.34,9.0,North,11.5,-,0.00,,Overcast,360,2012-11-14 16:55:00
12:15 PM,51.8,44.6,76,30.33,9.0,North,12.7,-,0.00,,Overcast,10,2012-11-14 17:15:00
12:35 PM,51.8,44.6,76,30.32,9.0,North,12.7,-,0.00,,Overcast,360,2012-11-14 17:35:00
12:55 PM,51.8,44.6,76,30.32,8.0,North,11.5,-,0.00,,Overcast,10,2012-11-14 17:55:00
1:15 PM,51.8,44.6,76,30.31,9.0,North,11.5,17.3,0.00,,Overcast,360,2012-11-14 18:15:00
1:35 PM,53.6,46.4,77,30.29,9.0,North,13.8,17.3,0.00,,Overcast,10,2012-11-14 18:35:00
1:55 PM,53.6,46.4,77,30.29,8.0,North,10.4,-,0.00,,Overcast,10,2012-11-14 18:55:00
2:15 PM,53.6,44.6,72,30.29,8.0,North,10.4,-,0.00,,Overcast,360,2012-11-14 19:15:00
2:35 PM,53.6,46.4,77,30.29,8.0,North,11.5,-,0.00,,Overcast,10,2012-11-14 19:35:00
2:55 PM,53.6,44.6,72,30.29,8.0,North,9.2,-,0.00,,Overcast,350,2012-11-14 19:55:00
3:15 PM,53.6,46.4,77,30.29,9.0,North,9.2,-,0.00,,Overcast,360,2012-11-14 20:15:00
3:35 PM,53.6,46.4,77,30.29,9.0,NNE,10.4,-,0.00,,Overcast,20,2012-11-14 20:35:00
3:55 PM,53.6,44.6,72,30.29,9.0,North,10.4,-,0.00,,Overcast,10,2012-11-14 20:55:00
4:15 PM,53.6,44.6,72,30.29,9.0,North,11.5,-,0.00,,Overcast,10,2012-11-14 21:15:00
4:35 PM,53.6,44.6,72,30.28,9.0,North,11.5,-,0.00,,Overcast,10,2012-11-14 21:35:00
4:55 PM,53.6,44.6,72,30.28,8.0,NNE,10.4,16.1,0.00,,Overcast,20,2012-11-14 21:55:00
5:15 PM,53.6,44.6,72,30.28,9.0,NNE,8.1,-,0.00,,Overcast,20,2012-11-14 22:15:00
5:35 PM,53.6,44.6,72,30.28,10.0,NNE,12.7,-,0.00,,Overcast,20,2012-11-14 22:35:00
5:55 PM,51.8,44.6,76,30.28,10.0,North,9.2,-,0.00,,Overcast,10,2012-11-14 22:55:00
6:15 PM,51.8,44.6,76,30.28,10.0,North,10.4,-,0.00,,Overcast,10,2012-11-14 23:15:00
6:35 PM,51.8,44.6,76,30.28,10.0,NNE,12.7,19.6,0.00,,Mostly Cloudy,20,2012-11-14 23:35:00
6:55 PM,53.6,44.6,72,30.29,10.0,NNE,10.4,-,0.00,,Mostly Cloudy,30,2012-11-14 23:55:00
7:15 PM,53.6,44.6,72,30.30,10.0,NNE,11.5,-,0.00,,Overcast,30,2012-11-15 00:15:00
7:35 PM,53.6,44.6,72,30.29,10.0,NE,15.0,-,0.00,,Overcast,40,2012-11-15 00:35:00
7:55 PM,53.6,44.6,72,30.29,10.0,NE,13.8,-,0.00,,Overcast,40,2012-11-15 00:55:00
8:15 PM,53.6,44.6,72,30.29,10.0,NNE,12.7,-,0.00,,Overcast,30,2012-11-15 01:15:00
8:35 PM,53.6,44.6,72,30.29,10.0,NNE,10.4,-,0.00,,Overcast,20,2012-11-15 01:35:00
8:55 PM,53.6,44.6,72,30.29,10.0,NNE,13.8,18.4,0.00,,Overcast,20,2012-11-15 01:55:00
9:15 PM,53.6,44.6,72,30.29,10.0,North,10.4,-,0.00,,Overcast,10,2012-11-15 02:15:00
9:35 PM,51.8,44.6,76,30.29,10.0,North,11.5,-,0.00,,Overcast,10,2012-11-15 02:35:00
9:55 PM,51.8,44.6,76,30.29,10.0,NNE,10.4,-,0.00,,Overcast,20,2012-11-15 02:55:00
10:15 PM,51.8,44.6,76,30.28,10.0,NNE,11.5,18.4,0.00,,Overcast,20,2012-11-15 03:15:00
10:35 PM,51.8,44.6,76,30.27,10.0,NNE,10.4,19.6,0.00,,Overcast,20,2012-11-15 03:35:00
10:55 PM,51.8,44.6,76,30.26,10.0,North,11.5,18.4,0.00,,Overcast,10,2012-11-15 03:55:00
11:15 PM,51.8,46.4,82,30.26,4.0,NNE,10.4,-,0.00,,Light Drizzle,20,2012-11-15 04:15:00
11:55 PM,50.0,46.4,87,30.25,3.0,North,9.2,-,0.00,,Overcast,10,2012-11-15 04:55:00